User: anonymous   Login
Location: Mentone
(34.5413°N, 85.5351°W)
Time: 11:24:29
(UTC-06:00)
Language:

Cosmos 1703 - Orbit

View from above orbital plane
View from above orbital plane
View from above satellite
View from above satellite

Ground track
Ground track

The orbit data is extracted from the following two-line orbital elements,

1 16262U 85108A   18017.45915630 +.00001012 +00000-0 +59372-4 0  9993
2 16262 082.4796 039.4708 0010248 255.6782 104.3310 15.10638085751244
Epoch (UTC): 17 January 2018 11:01:11
Eccentricity: 0.0010248
inclination: 82.4796°
perigee height: 527 km
apogee height: 541 km
right ascension of ascending node: 39.4708°
argument of perigee: 255.6782°
revolutions per day: 15.10638085
mean anomaly at epoch: 104.3310°
orbit number at epoch: 75124

The dashed part of the orbit path shows where the satellite is in the earth's shadow,  

DLR